San Antonio, TX

7:16 PM CST on February 27, 2017 (GMT -0600)
San Antonio International

Weather History for KSAT - September, 2012

Change the Weather History Date:

Thursday, September 6, 2012

  Actual Average Record
Temperature  
Mean Temperature 87 °F 82 °F  
Max Temperature 99 °F 93 °F 102 °F (2000)
Min Temperature 74 °F 72 °F 53 °F (1974)
Degree Days  
Heating Degree Days 0 0  
Month to date heating degree days 0 0  
Since 1 July heating degree days 0 0  
Cooling Degree Days 22 17  
Month to date cooling degree days 137 108  
Year to date cooling degree days 2930 2499  
Growing Degree Days 36 (Base 50)    
Moisture  
Dew Point 68 °F    
Average Humidity 62    
Maximum Humidity 94    
Minimum Humidity 29    
Precipitation  
Precipitation 0.00 in 0.11 in 2.62 in (1980)
Month to date precipitation 0.00 0.64  
Year to date precipitation 29.05 21.58  
Snow  
Snow 0.00 in - - ()
Month to date snowfall 0.0  
Since 1 July snowfall 0.0  
Since 1 September snowfall 0.0  
Snow Depth 0.00 in    
Sea Level Pressure  
Sea Level Pressure 29.86 in    
Wind  
Wind Speed 7 mph (SSE)    
Max Wind Speed 17 mph    
Max Gust Speed 22 mph    
Visibility 10 miles    
Events      
T = Trace of Precipitation, MM = Missing Value Source: NWS Daily Summary

Daily Weather History Graph

Daily Weather History Graph

Search for Another Location

Airport or City:

Trip Planner

Search our weather history database for the weather conditions in past years. The results will help you decide how hot, cold, wet, or windy it might be!

Date:

Astronomy

Sep. 06, 2012 Rise Set
Actual Time 7:14 AM CDT 7:49 PM CDT
Civil Twilight 6:50 AM CDT 8:13 PM CDT
Nautical Twilight 6:21 AM CDT 8:41 PM CDT
Astronomical Twilight 5:53 AM CDT 9:10 PM CDT
Moon 11:32 PM CDT (9/6) 12:44 PM CDT (9/6)
Length of Visible Light 13h 23m
Length of Day
12h 35m
Waning Gibbous, 67% of the Moon is Illuminated
Sep 6
Waning Gibbous
Sep 8
Last Quarter
Sep 15
New
Sep 22
First Quarter
Sep 29
Full

Hourly Weather History & Observations

Time (CDT) Temp. Heat Index Dew Point Humidity Pressure Visibility Wind Dir Wind Speed Gust Speed Precip Events Conditions
12:53 AM 80.1 °F 83.8 °F 72.0 °F 76% 29.86 in 10.0 mi SSE 5.8 mph - N/A   Partly Cloudy
1:53 AM 79.0 °F - 72.0 °F 79% 29.86 in 10.0 mi SE 5.8 mph - N/A   Partly Cloudy
2:53 AM 77.0 °F - 72.0 °F 84% 29.87 in 10.0 mi ESE 4.6 mph - N/A   Partly Cloudy
3:53 AM 75.0 °F - 72.0 °F 90% 29.87 in 10.0 mi SE 4.6 mph - N/A   Partly Cloudy
4:53 AM 77.0 °F - 73.0 °F 88% 29.87 in 10.0 mi South 6.9 mph - N/A   Partly Cloudy
5:53 AM 73.9 °F - 72.0 °F 93% 29.88 in 10.0 mi Calm Calm - N/A   Partly Cloudy
6:53 AM 75.9 °F - 72.0 °F 87% 29.89 in 10.0 mi South 3.5 mph - N/A   Partly Cloudy
7:53 AM 75.9 °F - 73.0 °F 91% 29.90 in 10.0 mi SSE 4.6 mph - N/A   Scattered Clouds
8:53 AM 79.0 °F - 73.0 °F 82% 29.92 in 10.0 mi South 8.1 mph - N/A   Mostly Cloudy
9:53 AM 82.0 °F 87.9 °F 73.9 °F 76% 29.92 in 10.0 mi SSE 10.4 mph - N/A   Mostly Cloudy
10:53 AM 84.9 °F 91.4 °F 73.0 °F 67% 29.94 in 10.0 mi South 5.8 mph - N/A   Scattered Clouds
11:53 AM 88.0 °F 92.9 °F 70.0 °F 55% 29.92 in 10.0 mi SE 6.9 mph - N/A   Partly Cloudy
12:53 PM 91.0 °F 95.2 °F 68.0 °F 47% 29.91 in 10.0 mi SE 9.2 mph - N/A   Partly Cloudy
1:53 PM 93.9 °F 98.6 °F 68.0 °F 43% 29.88 in 10.0 mi SE 6.9 mph - N/A   Partly Cloudy
2:53 PM 95.0 °F 97.9 °F 66.0 °F 38% 29.86 in 10.0 mi SSE 6.9 mph - N/A   Partly Cloudy
3:53 PM 97.0 °F 99.9 °F 64.9 °F 35% 29.84 in 10.0 mi SE 9.2 mph - N/A   Scattered Clouds
4:53 PM 98.1 °F 99.1 °F 62.1 °F 30% 29.81 in 10.0 mi SE 6.9 mph - N/A   Scattered Clouds
5:53 PM 98.1 °F 98.6 °F 61.0 °F 29% 29.81 in 10.0 mi SSE 8.1 mph - N/A   Scattered Clouds
6:53 PM 97.0 °F 97.8 °F 62.1 °F 31% 29.81 in 10.0 mi Calm Calm - N/A   Partly Cloudy
7:53 PM 93.0 °F 92.7 °F 60.1 °F 33% 29.80 in 10.0 mi SSE 6.9 mph - N/A   Partly Cloudy
8:53 PM 90.0 °F 90.0 °F 61.0 °F 38% 29.80 in 10.0 mi SSE 6.9 mph - N/A   Clear
9:53 PM 89.1 °F 91.0 °F 64.9 °F 45% 29.82 in 10.0 mi SSE 15.0 mph - N/A   Clear
10:53 PM 86.0 °F 88.2 °F 66.0 °F 51% 29.84 in 10.0 mi SSE 9.2 mph - N/A   Clear
11:53 PM 84.0 °F 86.5 °F 66.9 °F 56% 29.86 in 10.0 mi SSE 9.2 mph - N/A   Clear